| time (UTC) | temp C | wind direction | speed KPH | gust KPH | rain 1hr cm | rain 24hr cm | rain mn cm | humidity % | barometer mb |
| 20260505234803 | 9 | 0 | 14.5 | 19.3 | 0.00 | 0.00 | 0.00 | 37 | 1010.2 |
| 20260505234303 | 9 | 0 | 11.3 | 19.3 | 0.00 | 0.00 | 0.00 | 37 | 1010.2 |
| 20260505233804 | 9 | 0 | 6.4 | 14.5 | 0.00 | 0.00 | 0.00 | 37 | 1010.2 |
| 20260505233303 | 9 | 0 | 8.0 | 20.9 | 0.00 | 0.00 | 0.00 | 37 | 1010.2 |
| 20260505232803 | 9 | 0 | 16.1 | 29.0 | 0.00 | 0.00 | 0.00 | 37 | 1010.2 |
| 20260505232305 | 9 | 0 | 12.9 | 20.9 | 0.00 | 0.00 | 0.00 | 37 | 1010.2 |
| 20260505231803 | 9 | 0 | 8.0 | 22.5 | 0.00 | 0.00 | 0.00 | 37 | 1010.0 |
| 20260505231303 | 9 | 0 | 11.3 | 19.3 | 0.00 | 0.00 | 0.00 | 37 | 1010.1 |
| 20260505230803 | 9 | 0 | 11.3 | 20.9 | 0.00 | 0.00 | 0.00 | 37 | 1010.1 |
| 20260505230303 | 10 | 0 | 9.7 | 20.9 | 0.00 | 0.00 | 0.00 | 37 | 1010.1 |
| 20260505225803 | 10 | 0 | 12.9 | 22.5 | 0.00 | 0.00 | 0.00 | 36 | 1010.1 |
| 20260505224804 | 10 | 0 | 11.3 | 22.5 | 0.00 | 0.00 | 0.00 | 36 | 1010.1 |
| 20260505224303 | 10 | 0 | 11.3 | 25.7 | 0.00 | 0.00 | 0.00 | 36 | 1010.2 |
| 20260505223803 | 10 | 0 | 14.5 | 29.0 | 0.00 | 0.00 | 0.00 | 36 | 1010.1 |
| 20260505223303 | 10 | 0 | 11.3 | 20.9 | 0.00 | 0.00 | 0.00 | 36 | 1010.2 |
| 20260505222803 | 10 | 0 | 9.7 | 27.4 | 0.00 | 0.00 | 0.00 | 36 | 1010.2 |
| 20260505222305 | 10 | 0 | 9.7 | 20.9 | 0.00 | 0.00 | 0.00 | 36 | 1010.1 |
| 20260505221803 | 10 | 0 | 11.3 | 20.9 | 0.00 | 0.00 | 0.00 | 36 | 1010.1 |
| 20260505221303 | 10 | 0 | 8.0 | 25.7 | 0.00 | 0.00 | 0.00 | 36 | 1010.1 |
| 20260505220803 | 10 | 0 | 12.9 | 24.1 | 0.00 | 0.00 | 0.00 | 36 | 1010.1 |
| 20260505220304 | 10 | 0 | 11.3 | 27.4 | 0.00 | 0.00 | 0.00 | 36 | 1010.1 |
| 20260505215803 | 10 | 0 | 12.9 | 20.9 | 0.00 | 0.00 | 0.00 | 37 | 1010.1 |
| 20260505215305 | 11 | 0 | 11.3 | 22.5 | 0.00 | 0.00 | 0.00 | 37 | 1010.1 |
| 20260505214803 | 10 | 0 | 11.3 | 27.4 | 0.00 | 0.00 | 0.00 | 37 | 1010.1 |
| 20260505214303 | 10 | 0 | 12.9 | 29.0 | 0.00 | 0.00 | 0.00 | 37 | 1010.2 |
| 20260505213803 | 10 | 0 | 14.5 | 27.4 | 0.00 | 0.00 | 0.00 | 37 | 1010.2 |
| 20260505213304 | 10 | 0 | 8.0 | 16.1 | 0.00 | 0.00 | 0.00 | 37 | 1010.2 |
| 20260505212803 | 10 | 0 | 14.5 | 27.4 | 0.00 | 0.00 | 0.00 | 37 | 1010.2 |
| 20260505212305 | 11 | 0 | 12.9 | 24.1 | 0.00 | 0.00 | 0.00 | 37 | 1010.2 |
| 20260505211803 | 10 | 0 | 12.9 | 24.1 | 0.00 | 0.00 | 0.00 | 37 | 1010.2 |
| 20260505211303 | 10 | 0 | 6.4 | 19.3 | 0.00 | 0.00 | 0.00 | 37 | 1010.2 |
| 20260505210803 | 10 | 0 | 8.0 | 16.1 | 0.00 | 0.00 | 0.00 | 37 | 1010.2 |
| 20260505210304 | 10 | 0 | 8.0 | 16.1 | 0.00 | 0.00 | 0.00 | 37 | 1010.2 |
| 20260505205804 | 10 | 0 | 9.7 | 19.3 | 0.00 | 0.00 | 0.00 | 39 | 1010.2 |
| 20260505205305 | 10 | 0 | 11.3 | 29.0 | 0.00 | 0.00 | 0.00 | 39 | 1010.3 |
| 20260505204804 | 10 | 0 | 4.8 | 20.9 | 0.00 | 0.00 | 0.00 | 39 | 1010.4 |
| 20260505204304 | 10 | 0 | 11.3 | 22.5 | 0.00 | 0.00 | 0.00 | 39 | 1010.4 |
| 20260505203803 | 10 | 0 | 8.0 | 24.1 | 0.00 | 0.00 | 0.00 | 39 | 1010.2 |
| 20260505203303 | 10 | 0 | 9.7 | 19.3 | 0.00 | 0.00 | 0.00 | 39 | 1010.3 |
| 20260505202306 | 10 | 0 | 14.5 | 22.5 | 0.00 | 0.00 | 0.00 | 39 | 1010.5 |
| 20260505201304 | 10 | 0 | 11.3 | 25.7 | 0.00 | 0.00 | 0.00 | 39 | 1010.4 |
| 20260505200804 | 10 | 0 | 4.8 | 25.7 | 0.00 | 0.00 | 0.00 | 39 | 1010.4 |
| 20260505200304 | 10 | 0 | 14.5 | 32.2 | 0.00 | 0.00 | 0.00 | 39 | 1010.5 |
| 20260505195803 | 11 | 0 | 9.7 | 32.2 | 0.00 | 0.00 | 0.00 | 38 | 1010.5 |
| 20260505195305 | 11 | 0 | 17.7 | 32.2 | 0.00 | 0.00 | 0.00 | 38 | 1010.6 |
| 20260505194303 | 11 | 0 | 12.9 | 25.7 | 0.00 | 0.00 | 0.00 | 38 | 1010.6 |
| 20260505193803 | 11 | 0 | 9.7 | 20.9 | 0.00 | 0.00 | 0.00 | 38 | 1010.5 |
| 20260505193303 | 10 | 0 | 11.3 | 24.1 | 0.00 | 0.00 | 0.00 | 38 | 1010.7 |
| 20260505192803 | 10 | 0 | 8.0 | 19.3 | 0.00 | 0.00 | 0.00 | 38 | 1010.6 |
| 20260505192305 | 10 | 0 | 11.3 | 24.1 | 0.00 | 0.00 | 0.00 | 38 | 1010.6 |
| 20260505191803 | 9 | 0 | 12.9 | 22.5 | 0.00 | 0.00 | 0.00 | 38 | 1010.7 |
| 20260505191303 | 9 | 0 | 12.9 | 20.9 | 0.00 | 0.00 | 0.00 | 38 | 1010.7 |
| 20260505190804 | 9 | 0 | 11.3 | 24.1 | 0.00 | 0.00 | 0.00 | 38 | 1010.7 |
| 20260505190303 | 10 | 0 | 6.4 | 22.5 | 0.00 | 0.00 | 0.00 | 38 | 1010.6 |
| 20260505185804 | 9 | 0 | 12.9 | 37.0 | 0.00 | 0.00 | 0.00 | 42 | 1010.6 |
| 20260505183804 | 9 | 0 | 11.3 | 20.9 | 0.00 | 0.00 | 0.00 | 42 | 1010.6 |
| 20260505183304 | 9 | 0 | 11.3 | 32.2 | 0.00 | 0.00 | 0.00 | 42 | 1010.6 |
| 20260505182803 | 10 | 0 | 8.0 | 24.1 | 0.00 | 0.00 | 0.00 | 42 | 1010.5 |
| 20260505181803 | 10 | 0 | 11.3 | 22.5 | 0.00 | 0.00 | 0.00 | 42 | 1010.6 |
| 20260505181303 | 10 | 0 | 9.7 | 24.1 | 0.00 | 0.00 | 0.00 | 42 | 1010.5 |
| 20260505180804 | 8 | 0 | 9.7 | 19.3 | 0.00 | 0.00 | 0.00 | 42 | 1010.6 |
| 20260505180303 | 8 | 0 | 11.3 | 22.5 | 0.00 | 0.00 | 0.00 | 42 | 1010.6 |
| 20260505175804 | 8 | 0 | 14.5 | 25.7 | 0.00 | 0.00 | 0.00 | 39 | 1010.5 |
| 20260505175305 | 9 | 0 | 9.7 | 24.1 | 0.00 | 0.00 | 0.00 | 39 | 1010.5 |
| 20260505174803 | 9 | 0 | 14.5 | 24.1 | 0.00 | 0.00 | 0.00 | 39 | 1010.5 |
| 20260505174303 | 9 | 0 | 9.7 | 24.1 | 0.00 | 0.00 | 0.00 | 39 | 1010.4 |
| 20260505173804 | 9 | 0 | 8.0 | 27.4 | 0.00 | 0.00 | 0.00 | 39 | 1010.4 |
| 20260505172803 | 9 | 0 | 8.0 | 22.5 | 0.00 | 0.00 | 0.00 | 39 | 1010.4 |
| 20260505172305 | 9 | 0 | 9.7 | 19.3 | 0.00 | 0.00 | 0.00 | 39 | 1010.6 |
| 20260505171804 | 8 | 0 | 11.3 | 32.2 | 0.00 | 0.00 | 0.00 | 39 | 1010.5 |
| 20260505171304 | 8 | 0 | 9.7 | 19.3 | 0.00 | 0.00 | 0.00 | 39 | 1010.5 |
| 20260505170803 | 9 | 0 | 11.3 | 20.9 | 0.00 | 0.00 | 0.00 | 39 | 1010.6 |
| 20260505170304 | 9 | 0 | 11.3 | 22.5 | 0.00 | 0.00 | 0.00 | 39 | 1010.5 |
| 20260505165803 | 9 | 0 | 11.3 | 16.1 | 0.00 | 0.00 | 0.00 | 43 | 1010.6 |
| 20260505165306 | 9 | 0 | 4.8 | 24.1 | 0.00 | 0.00 | 0.00 | 43 | 1010.6 |
| 20260505164803 | 9 | 0 | 8.0 | 24.1 | 0.00 | 0.00 | 0.00 | 43 | 1010.5 |
| 20260505164303 | 9 | 0 | 6.4 | 19.3 | 0.00 | 0.00 | 0.00 | 43 | 1010.5 |
| 20260505163804 | 9 | 0 | 11.3 | 32.2 | 0.00 | 0.00 | 0.00 | 43 | 1010.5 |
| 20260505163303 | 8 | 0 | 4.8 | 16.1 | 0.00 | 0.00 | 0.00 | 43 | 1010.5 |
| 20260505162803 | 8 | 0 | 9.7 | 20.9 | 0.00 | 0.00 | 0.00 | 43 | 1010.7 |
| 20260505162306 | 8 | 0 | 12.9 | 24.1 | 0.00 | 0.00 | 0.00 | 43 | 1010.6 |
| 20260505161304 | 9 | 0 | 14.5 | 25.7 | 0.00 | 0.00 | 0.00 | 43 | 1010.7 |
| 20260505160803 | 9 | 0 | 12.9 | 29.0 | 0.00 | 0.00 | 0.00 | 43 | 1010.7 |
| 20260505153304 | 8 | 0 | 11.3 | 24.1 | 0.00 | 0.00 | 0.00 | 45 | 1010.5 |
| 20260505152803 | 8 | 0 | 8.0 | 16.1 | 0.00 | 0.00 | 0.00 | 45 | 1010.4 |
| 20260505152305 | 8 | 0 | 11.3 | 24.1 | 0.00 | 0.00 | 0.00 | 45 | 1010.4 |
| 20260505151304 | 8 | 0 | 8.0 | 20.9 | 0.00 | 0.00 | 0.00 | 45 | 1010.3 |
| 20260505150804 | 8 | 0 | 8.0 | 19.3 | 0.00 | 0.00 | 0.00 | 45 | 1010.3 |
| 20260505150303 | 7 | 0 | 8.0 | 16.1 | 0.00 | 0.00 | 0.00 | 45 | 1010.3 |
| 20260505140304 | 7 | 0 | 6.4 | 12.9 | 0.00 | 0.00 | 0.00 | 53 | 1010.1 |
| 20260505130304 | 5 | 0 | 3.2 | 8.0 | 0.00 | 0.00 | 0.00 | 63 | 1009.7 |
| 20260505124803 | 4 | 0 | 3.2 | 8.0 | 0.00 | 0.00 | 0.00 | 66 | 1009.5 |
| 20260505124303 | 3 | 0 | 3.2 | 4.8 | 0.00 | 0.00 | 0.00 | 66 | 1009.4 |
| 20260505123804 | 3 | 359 | 0.0 | 4.8 | 0.00 | 0.00 | 0.00 | 66 | 1009.4 |
| 20260505123303 | 3 | 350 | 1.6 | 3.2 | 0.00 | 0.00 | 0.00 | 66 | 1009.4 |
| 20260505122803 | 2 | 296 | 1.6 | 4.8 | 0.00 | 0.00 | 0.00 | 66 | 1009.3 |
| 20260505122305 | 2 | 0 | 0.0 | 3.2 | 0.00 | 0.00 | 0.00 | 66 | 1009.3 |
| 20260505121803 | 2 | 0 | 1.6 | 3.2 | 0.00 | 0.00 | 0.00 | 66 | 1009.2 |
| 20260505121303 | 1 | 0 | 0.0 | 1.6 | 0.00 | 0.00 | 0.00 | 66 | 1009.1 |
| 20260505120803 | 1 | 0 | 0.0 | 3.2 | 0.00 | 0.00 | 0.00 | 66 | 1009.0 |
| 20260505120304 | 1 | 0 | 0.0 | 3.2 | 0.00 | 0.00 | 0.00 | 66 | 1008.9 |
| 20260505115803 | 0 | 0 | 1.6 | 3.2 | 0.00 | 0.00 | 0.00 | 68 | 1008.8 |
| 20260505115305 | 0 | 0 | 0.0 | 3.2 | 0.00 | 0.00 | 0.00 | 68 | 1008.8 |
| 20260505114804 | 0 | 0 | 0.0 | 1.6 | 0.00 | 0.00 | 0.00 | 68 | 1008.7 |
| 20260505114303 | 0 | 0 | 0.0 | 1.6 | 0.00 | 0.00 | 0.00 | 68 | 1008.6 |
| 20260505113304 | 0 | 224 | 0.0 | 3.2 | 0.00 | 0.00 | 0.00 | 68 | 1008.3 |
| 20260505112803 | 0 | 31 | 0.0 | 0.0 | 0.00 | 0.00 | 0.00 | 68 | 1008.2 |
| 20260505111804 | 0 | 276 | 0.0 | 0.0 | 0.00 | 0.00 | 0.00 | 68 | 1007.8 |
| 20260505111304 | 0 | 276 | 0.0 | 0.0 | 0.00 | 0.00 | 0.00 | 68 | 1007.7 |
| 20260505110803 | 0 | 276 | 0.0 | 1.6 | 0.00 | 0.00 | 0.00 | 68 | 1007.6 |
| 20260505101804 | 0 | 275 | 1.6 | 4.8 | 0.00 | 0.00 | 0.00 | 74 | 1007.2 |
| 20260505101304 | 0 | 275 | 1.6 | 4.8 | 0.00 | 0.00 | 0.00 | 74 | 1007.2 |
| 20260505100803 | 1 | 275 | 3.2 | 4.8 | 0.00 | 0.00 | 0.00 | 74 | 1007.2 |
| 20260505100303 | 1 | 271 | 3.2 | 4.8 | 0.00 | 0.00 | 0.00 | 74 | 1007.1 |
| 20260505095304 | 0 | 262 | 3.2 | 4.8 | 0.00 | 0.00 | 0.00 | 74 | 1007.2 |
| 20260505094803 | 0 | 288 | 3.2 | 4.8 | 0.00 | 0.00 | 0.00 | 74 | 1007.2 |
| 20260505094303 | 1 | 288 | 0.0 | 4.8 | 0.00 | 0.00 | 0.00 | 74 | 1007.1 |
| 20260505093304 | 1 | 288 | 0.0 | 1.6 | 0.00 | 0.00 | 0.00 | 74 | 1006.9 |
| 20260505092803 | 1 | 288 | 1.6 | 3.2 | 0.00 | 0.00 | 0.00 | 74 | 1006.9 |
| 20260505092305 | 1 | 288 | 0.0 | 3.2 | 0.00 | 0.00 | 0.00 | 74 | 1006.9 |
| 20260505091804 | 1 | 288 | 1.6 | 4.8 | 0.00 | 0.00 | 0.00 | 74 | 1006.9 |
| 20260505090304 | 1 | 0 | 0.0 | 1.6 | 0.00 | 0.00 | 0.00 | 71 | 1006.7 |
| 20260505085803 | 1 | 0 | 0.0 | 3.2 | 0.00 | 0.00 | 0.00 | 58 | 1006.6 |
| 20260505085304 | 1 | 0 | 0.0 | 3.2 | 0.00 | 0.00 | 0.00 | 58 | 1006.6 |
| 20260505084803 | 1 | 0 | 0.0 | 3.2 | 0.00 | 0.00 | 0.00 | 58 | 1006.5 |
| 20260505084304 | 1 | 0 | 1.6 | 3.2 | 0.00 | 0.00 | 0.00 | 58 | 1006.3 |
| 20260505083803 | 1 | 0 | 0.0 | 3.2 | 0.00 | 0.00 | 0.00 | 58 | 1006.2 |
| 20260505083304 | 1 | 0 | 1.6 | 4.8 | 0.00 | 0.00 | 0.00 | 58 | 1006.2 |
| 20260505082304 | 2 | 0 | 1.6 | 4.8 | 0.00 | 0.00 | 0.00 | 58 | 1005.9 |
| 20260505081804 | 2 | 0 | 3.2 | 4.8 | 0.00 | 0.00 | 0.00 | 58 | 1005.9 |
| 20260505081304 | 2 | 0 | 3.2 | 4.8 | 0.00 | 0.00 | 0.00 | 58 | 1005.9 |
| 20260505080804 | 2 | 0 | 3.2 | 4.8 | 0.00 | 0.00 | 0.00 | 58 | 1005.9 |
| 20260505080303 | 2 | 0 | 1.6 | 4.8 | 0.00 | 0.00 | 0.00 | 58 | 1006.0 |
| 20260505075804 | 2 | 0 | 1.6 | 3.2 | 0.00 | 0.00 | 0.00 | 54 | 1006.0 |
| 20260505073304 | 2 | 0 | 1.6 | 4.8 | 0.00 | 0.00 | 0.00 | 54 | 1005.6 |
| 20260505072804 | 2 | 0 | 3.2 | 8.0 | 0.00 | 0.00 | 0.00 | 54 | 1005.7 |
| 20260505071804 | 3 | 0 | 1.6 | 3.2 | 0.00 | 0.00 | 0.00 | 54 | 1005.7 |
| 20260505071304 | 3 | 0 | 0.0 | 4.8 | 0.00 | 0.00 | 0.00 | 54 | 1005.7 |
| 20260505070804 | 3 | 0 | 1.6 | 4.8 | 0.00 | 0.00 | 0.00 | 54 | 1005.7 |
| 20260505065804 | 3 | 0 | 3.2 | 4.8 | 0.00 | 0.00 | 0.00 | 50 | 1005.8 |
| 20260505065304 | 3 | 0 | 4.8 | 9.7 | 0.00 | 0.00 | 0.00 | 50 | 1005.7 |
| 20260505064803 | 3 | 0 | 4.8 | 8.0 | 0.00 | 0.00 | 0.00 | 50 | 1005.7 |
| 20260505064304 | 3 | 0 | 3.2 | 4.8 | 0.00 | 0.00 | 0.00 | 50 | 1005.7 |
| 20260505063803 | 3 | 0 | 1.6 | 4.8 | 0.00 | 0.00 | 0.00 | 50 | 1005.7 |
| 20260505063303 | 3 | 0 | 3.2 | 8.0 | 0.00 | 0.00 | 0.00 | 50 | 1005.8 |
| 20260505062804 | 3 | 0 | 1.6 | 4.8 | 0.00 | 0.00 | 0.00 | 50 | 1005.8 |
| 20260505062304 | 3 | 0 | 0.0 | 1.6 | 0.00 | 0.00 | 0.00 | 50 | 1005.9 |
| 20260505061804 | 3 | 0 | 0.0 | 4.8 | 0.00 | 0.00 | 0.00 | 50 | 1005.8 |
| 20260505061304 | 3 | 0 | 0.0 | 3.2 | 0.00 | 0.00 | 0.00 | 50 | 1005.8 |
| 20260505060804 | 2 | 0 | 1.6 | 3.2 | 0.00 | 0.00 | 0.00 | 50 | 1005.8 |
| 20260505055803 | 3 | 0 | 1.6 | 3.2 | 0.00 | 0.00 | 0.00 | 55 | 1005.8 |
| 20260505055304 | 3 | 0 | 0.0 | 3.2 | 0.00 | 0.00 | 0.00 | 55 | 1005.8 |
| 20260505054304 | 3 | 0 | 0.0 | 1.6 | 0.00 | 0.00 | 0.00 | 55 | 1005.8 |
| 20260505053804 | 3 | 0 | 0.0 | 1.6 | 0.00 | 0.00 | 0.00 | 55 | 1005.7 |
| 20260505053304 | 3 | 0 | 0.0 | 0.0 | 0.00 | 0.00 | 0.00 | 55 | 1005.7 |
| 20260505052804 | 3 | 0 | 1.6 | 3.2 | 0.00 | 0.00 | 0.00 | 55 | 1005.8 |
| 20260505051804 | 3 | 0 | 0.0 | 0.0 | 0.00 | 0.00 | 0.00 | 55 | 1005.6 |
| 20260505050813 | 4 | 0 | 0.0 | 1.6 | 0.00 | 0.00 | 0.00 | 55 | 1005.5 |
| 20260505050303 | 4 | 0 | 1.6 | 4.8 | 0.00 | 0.00 | 0.00 | 55 | 1005.5 |
| 20260505041304 | 6 | 0 | 0.0 | 1.6 | 0.00 | 0.00 | 0.00 | 47 | 1005.5 |
| 20260505040803 | 6 | 0 | 1.6 | 4.8 | 0.00 | 0.00 | 0.00 | 47 | 1005.5 |
| 20260505040303 | 6 | 0 | 3.2 | 8.0 | 0.00 | 0.00 | 0.00 | 47 | 1005.5 |
| 20260505035803 | 6 | 0 | 3.2 | 8.0 | 0.00 | 0.00 | 0.00 | 45 | 1005.5 |
| 20260505035304 | 6 | 0 | 3.2 | 9.7 | 0.00 | 0.00 | 0.00 | 45 | 1005.5 |
| 20260505034803 | 6 | 0 | 3.2 | 8.0 | 0.00 | 0.00 | 0.00 | 45 | 1005.4 |
| 20260505034303 | 6 | 0 | 1.6 | 4.8 | 0.00 | 0.00 | 0.00 | 45 | 1005.5 |
| 20260505033803 | 6 | 0 | 4.8 | 8.0 | 0.00 | 0.00 | 0.00 | 45 | 1005.5 |
| 20260505033303 | 7 | 0 | 4.8 | 14.5 | 0.00 | 0.00 | 0.00 | 45 | 1005.5 |
| 20260505032804 | 7 | 0 | 4.8 | 9.7 | 0.00 | 0.00 | 0.00 | 45 | 1005.6 |
| 20260505032304 | 7 | 0 | 3.2 | 12.9 | 0.00 | 0.00 | 0.00 | 45 | 1005.5 |
| 20260505031304 | 7 | 0 | 6.4 | 19.3 | 0.00 | 0.00 | 0.00 | 45 | 1005.4 |
| 20260505030303 | 7 | 0 | 6.4 | 16.1 | 0.00 | 0.00 | 0.00 | 45 | 1005.3 |
| 20260505025803 | 7 | 0 | 9.7 | 22.5 | 0.00 | 0.00 | 0.00 | 42 | 1005.3 |
| 20260505025305 | 8 | 0 | 9.7 | 20.9 | 0.00 | 0.00 | 0.00 | 42 | 1005.3 |
| 20260505024804 | 8 | 0 | 9.7 | 19.3 | 0.00 | 0.00 | 0.00 | 42 | 1005.2 |
| 20260505023803 | 8 | 0 | 11.3 | 20.9 | 0.00 | 0.00 | 0.00 | 42 | 1004.9 |
| 20260505023304 | 8 | 0 | 14.5 | 32.2 | 0.00 | 0.00 | 0.00 | 42 | 1004.8 |
| 20260505022803 | 8 | 0 | 14.5 | 24.1 | 0.00 | 0.00 | 0.00 | 42 | 1004.6 |
| 20260505022304 | 9 | 0 | 14.5 | 32.2 | 0.00 | 0.00 | 0.00 | 42 | 1004.5 |
| 20260505021803 | 9 | 0 | 19.3 | 35.4 | 0.00 | 0.00 | 0.00 | 42 | 1004.4 |
| 20260505021303 | 9 | 0 | 17.7 | 32.2 | 0.00 | 0.00 | 0.00 | 42 | 1004.2 |
| 20260505020303 | 9 | 0 | 4.8 | 14.5 | 0.00 | 0.00 | 0.00 | 42 | 1003.9 |
| 20260505015803 | 9 | 0 | 9.7 | 24.1 | 0.00 | 0.00 | 0.00 | 41 | 1003.8 |
| 20260505015304 | 10 | 0 | 9.7 | 32.2 | 0.00 | 0.00 | 0.00 | 41 | 1003.7 |
| 20260505014803 | 10 | 0 | 11.3 | 24.1 | 0.00 | 0.00 | 0.00 | 41 | 1003.6 |
| 20260505014303 | 10 | 0 | 11.3 | 22.5 | 0.00 | 0.00 | 0.00 | 41 | 1003.5 |
| 20260505013804 | 10 | 0 | 9.7 | 19.3 | 0.00 | 0.00 | 0.00 | 41 | 1003.4 |
| 20260505013303 | 10 | 0 | 11.3 | 27.4 | 0.00 | 0.00 | 0.00 | 41 | 1003.4 |
| 20260505012803 | 10 | 0 | 9.7 | 32.2 | 0.00 | 0.00 | 0.00 | 41 | 1003.2 |
| 20260505012304 | 10 | 0 | 12.9 | 27.4 | 0.00 | 0.00 | 0.00 | 41 | 1003.2 |
| 20260505011803 | 10 | 0 | 11.3 | 25.7 | 0.00 | 0.00 | 0.00 | 41 | 1003.1 |
| 20260505010804 | 10 | 0 | 11.3 | 29.0 | 0.00 | 0.00 | 0.00 | 41 | 1002.9 |
| 20260505010304 | 11 | 0 | 14.5 | 35.4 | 0.00 | 0.00 | 0.00 | 41 | 1002.8 |
| 20260505005804 | 11 | 0 | 8.0 | 32.2 | 0.00 | 0.00 | 0.00 | 39 | 1002.6 |
| 20260505005304 | 11 | 0 | 16.1 | 29.0 | 0.00 | 0.00 | 0.00 | 39 | 1002.6 |
| 20260505004804 | 11 | 0 | 12.9 | 24.1 | 0.00 | 0.00 | 0.00 | 39 | 1002.4 |
| 20260505004304 | 11 | 0 | 14.5 | 29.0 | 0.00 | 0.00 | 0.00 | 39 | 1002.4 |
| 20260505003804 | 11 | 0 | 16.1 | 32.2 | 0.00 | 0.00 | 0.00 | 39 | 1002.4 |
| 20260505002804 | 11 | 0 | 16.1 | 27.4 | 0.00 | 0.00 | 0.00 | 39 | 1002.2 |
| 20260505002304 | 11 | 0 | 16.1 | 40.2 | 0.00 | 0.00 | 0.00 | 39 | 1002.2 |
| 20260505001803 | 12 | 0 | 12.9 | 32.2 | 0.00 | 0.00 | 0.00 | 39 | 1002.1 |
| 20260505001304 | 12 | 0 | 11.3 | 27.4 | 0.00 | 0.00 | 0.00 | 39 | 1002.0 |
| 20260505000804 | 12 | 0 | 17.7 | 37.0 | 0.00 | 0.00 | 0.00 | 39 | 1001.9 |
| 20260505000303 | 12 | 0 | 14.5 | 32.2 | 0.00 | 0.00 | 0.00 | 39 | 1001.8 |
| 20260504235804 | 12 | 0 | 14.5 | 29.0 | 0.00 | 0.00 | 0.00 | 36 | 1001.7 |